Regional Weather Roundup
Issued by NWS

Home | Current Version | Previous Version | Text Only | Print | Product List | Glossary On
Versions: 1 2 3 4 5 6 7 8 9 10 11 12 13 14 15 16 17 18 19 20 21 22 23 24 25 26 27 28 29 30 31 32 33 34 35 36 37 38 39 40 41 42 43 44 45 46 47 48 49 50
085
ASUS43 KTOP 270308
RWRKS

WEATHER ROUNDUP FOR KANSAS
NATIONAL WEATHER SERVICE GOODLAND KS
1000 PM CDT MON SEP 26 2016

NOTE:  "FAIR" INDICATES FEW OR NO CLOUDS BELOW 12,000 FEET WITH NO
SIGNIFICANT WEATHER AND/OR OBSTRUCTIONS TO VISIBILITY.

KSZ001>006-013>018-027>032-041>047-270400-
NORTHWEST KANSAS

CITY           SKY/WX    TMP DP  RH WIND       PRES   REMARKS
GOODLAND       CLEAR     55  40  56 CALM      30.24S
HAYS           CLEAR     57  39  51 CALM      30.18S
HILL CITY      CLEAR     52  48  86 W3        30.18S
RUSSELL        CLEAR     58  44  60 S10       30.16S
$$

KSZ061>065-074>080-084>089-270400-
SOUTHWEST KANSAS

CITY           SKY/WX    TMP DP  RH WIND       PRES   REMARKS
DODGE CITY     CLEAR     59  39  47 S8        30.20S
ELKHART          N/A     61  34  36 S8          N/A
GARDEN CITY    CLEAR     59  35  40 S9        30.20S
GREAT BEND     CLEAR     59  41  51 S8        30.18S
LIBERAL        CLEAR     55  30  38 S10       30.24F
PRATT          CLEAR     54  41  62 S6        30.20F
$$

KSZ066>073-081>083-090>101-270400-
SOUTHEAST KANSAS

CITY           SKY/WX    TMP DP  RH WIND       PRES   REMARKS
CHANUTE        CLEAR     55  51  86 CALM      30.17S
COFFEYVILLE    CLEAR     55  50  83 CALM      30.18S
HUTCHINSON     CLEAR     58  48  69 CALM      30.19R
MEDICINE LODGE   N/A     59  45  59 CALM      30.19F
NEWTON         CLEAR    N/A N/A N/A S7        30.19S
PARSONS        CLEAR     51  49  92 CALM      30.18S
WICHITA INTL   CLEAR     58  49  72 SW6       30.18F
WICHITA JABRA  CLEAR     58  48  69 S7        30.18F
WICHITA MCCONL CLEAR     61  47  59 S3        30.19S
WINFIELD       CLEAR     59  53  80 CALM      30.20F
$$

KSZ007>012-019>026-033>040-048>060-102>105-270400-
NORTHEAST KANSAS

CITY           SKY/WX    TMP DP  RH WIND       PRES   REMARKS
CONCORDIA      CLEAR     61  44  53 SW12      30.13S
EMPORIA        CLEAR     55  48  77 SW7       30.16F
LAWRENCE       CLEAR     53  52  96 CALM      30.13F
MANHATTAN      CLEAR     57  50  77 CALM      30.13F
MARYSVILLE     CLEAR     59  46  63 SW6       30.12S
OLATHE IND     CLEAR     60  48  64 SW9       30.14F
OLATHE EXE     CLEAR     58  48  69 SW5       30.14S
SALINA         CLEAR     57  49  74 S8        30.15F
TOPEKA BILLARD CLEAR     57  51  80 SW3       30.13S
TOPEKA FORBES  CLEAR     59  49  69 SW7       30.14S
$$




USA.gov is the U.S. government's official web portal to all federal, state and local government web resources and services.